This is the latest recevied weather packets stored in our database for station/object WD9U. If no packets are shown the sender has not sent any weather packets the latest 10 day(s).
| Time | Temp. | Humidity | Pressure | Rain* | Wind** | Luminosity | Snow |
|---|---|---|---|---|---|---|---|
| 1777416642 | 11.11° C | 47% | 1014.2 hPa | 0 mm | - | 358 W/m² | - |
| 1777416298 | 11.11° C | 48% | 1014.2 hPa | 0 mm | - | 420 W/m² | - |
| 1777415938 | 11.11° C | 50% | 1014.2 hPa | 0 mm | - | 468 W/m² | - |
| 1777415578 | 11.11° C | 47% | 1014.3 hPa | 0 mm | - | 113 W/m² | - |
| 1777415451 | 11.67° C | 49% | 1014.2 hPa | 0 mm | - | 103 W/m² | - |
| 1777415218 | 11.67° C | 48% | 1014.1 hPa | 0 mm | - | 320 W/m² | - |
| 1777414858 | 11.67° C | 47% | 1014.1 hPa | 0 mm | - | 494 W/m² | - |
| 1777414498 | 11.67° C | 47% | 1014.2 hPa | 0 mm | - | 234 W/m² | - |
| 1777414138 | 11.67° C | 48% | 1014.1 hPa | 0 mm | - | 158 W/m² | - |
| 1777413778 | 11.11° C | 49% | 1014.1 hPa | 0 mm | - | 228 W/m² | - |
| 1777413418 | 11.11° C | 48% | 1013.9 hPa | 0 mm | - | 188 W/m² | - |
| 1777413050 | 11.67° C | 48% | 1013.9 hPa | 0 mm | - | 196 W/m² | - |
| 1777412697 | 11.67° C | 49% | 1013.8 hPa | 0 mm | - | 227 W/m² | - |
| 1777412337 | 11.67° C | 49% | 1014 hPa | 0 mm | - | 223 W/m² | - |
| 1777411977 | 12.22° C | 47% | 1013.9 hPa | 0 mm | - | 204 W/m² | - |
| 1777411850 | 12.22° C | 46% | 1013.9 hPa | 0 mm | - | 510 W/m² | - |
| 1777411617 | 11.67° C | 46% | 1013.9 hPa | 0 mm | - | 707 W/m² | - |
| 1777411257 | 11.67° C | 46% | 1013.8 hPa | 0 mm | - | 794 W/m² | - |
| 1777410897 | 11.67° C | 46% | 1013.7 hPa | 0 mm | - | 402 W/m² | - |
| 1777410650 | 11.67° C | 46% | 1013.7 hPa | 0 mm | - | 266 W/m² | - |
| 1777410537 | 11.67° C | 47% | 1013.7 hPa | 0 mm | - | 290 W/m² | - |
| 1777410177 | 11.67° C | 47% | 1013.8 hPa | 0 mm | - | 771 W/m² | - |
| 1777409817 | 11.67° C | 49% | 1013.7 hPa | 0 mm | - | 718 W/m² | - |
| 1777409457 | 11.67° C | 48% | 1013.7 hPa | 0 mm | - | 376 W/m² | - |
| 1777409097 | 11.67° C | 49% | 1013.8 hPa | 0 mm | - | 348 W/m² | - |
* Rain latest hour (hover to see other rain measurements)
** Current wind speed in m/s (hover to see current wind gust speed)